Weather reports worldwide

Advertisment
Calatayud, Spain (8156): temperature & dewpoint: 13.03.2019 10:00:00 - 19.03.2019 10:00:00 (CET)Calatayud, Spain (8156): wind speed & gusts: 13.03.2019 10:00:00 - 19.03.2019 10:00:00 (CET)Calatayud, Spain (8156): wind direction: 13.03.2019 10:00:00 - 19.03.2019 10:00:00 (CET)Calatayud, Spain (8156): reduced air pressure: 13.03.2019 10:00:00 - 19.03.2019 10:00:00 (CET)Calatayud, Spain (8156): visibility: 13.03.2019 10:00:00 - 19.03.2019 10:00:00 (CET)Calatayud, Spain (8156): sunshine duration: 13.03.2019 10:00:00 - 19.03.2019 10:00:00 (CET)Calatayud, Spain (8156): precipitation: 13.03.2019 10:00:00 - 19.03.2019 10:00:00 (CET)
Date & Time tt [°C] td [°C] ff [km/h] ff [kn] fx [km/h] fx [kn] dd ppp [hPa] vv [km] sd [min] rr [mm]
19.03.2019 10:00:00 - - - - - - - - - - -
19.03.2019 09:00:00 6,0 1,3 5 3 13 7 S 1025,7 20 0 0,0
19.03.2019 08:00:00 4,6 1,3 6 3 14 8 SE 1025,8 20 0 0,0
19.03.2019 07:00:00 4,5 1,1 5 3 10 5 S 1025,6 20 0 -
19.03.2019 06:00:00 4,6 1,7 6 3 9 5 S 1025,7 20 0 0,0
19.03.2019 05:00:00 5,0 2,1 4 2 10 5 SSW 1025,8 20 0 0,0
19.03.2019 04:00:00 5,4 1,7 5 3 9 5 SSE 1026,0 20 0 0,6
19.03.2019 03:00:00 6,0 0,6 2 1 10 5 SSE 1026,4 20 0 0,0
19.03.2019 02:00:00 5,7 -0,5 5 3 8 5 WSW 1026,5 20 0 0,0
19.03.2019 01:00:00 5,6 -0,7 3 2 6 4 W 1026,8 20 0 -
19.03.2019 00:00:00 6,6 -0,7 4 2 26 14 NW 1026,8 20 0 0,0
18.03.2019 23:00:00 6,8 -1,0 19 10 33 18 ENE 1026,7 20 0 0,0
18.03.2019 22:00:00 7,4 -0,7 18 10 32 17 NE 1026,2 20 0 0,0
18.03.2019 21:00:00 8,0 -1,2 12 7 29 16 NE 1025,6 20 0 0,0
18.03.2019 20:00:00 9,4 -3,6 10 5 21 11 ENE 1024,9 20 0 0,0
18.03.2019 19:00:00 10,8 -3,3 13 7 29 16 NE 1023,9 20 43 -
18.03.2019 18:00:00 12,7 -5,7 20 11 34 19 NNE 1022,6 20 60 0,0
18.03.2019 17:00:00 13,6 -6,7 21 11 35 19 NE 1022,3 20 60 0,0
18.03.2019 16:00:00 13,8 -7,1 24 13 36 19 NE 1022,2 20 60 0,0
18.03.2019 15:00:00 13,9 -6,4 20 11 36 20 NE 1022,6 20 60 0,0
18.03.2019 14:00:00 13,1 -7,1 21 11 38 20 NE 1023,6 20 54 0,0
18.03.2019 13:00:00 - - - - - - - - 20 - -
18.03.2019 12:00:00 11,3 -3,0 4 2 14 7 ESE 1025,5 20 60 0,0
18.03.2019 11:00:00 9,3 -2,5 3 2 10 6 NNW 1026,2 20 60 0,0
18.03.2019 10:00:00 6,0 -3,0 - - - - - 1026,8 20 - -
18.03.2019 09:00:00 - - - - - - - - - - -
18.03.2019 08:00:00 - - - - - - - - - - -
18.03.2019 07:00:00 - - - - - - - - - - -
18.03.2019 06:00:00 - - - - - - - - - - -
18.03.2019 05:00:00 - - - - - - - - - - -
18.03.2019 04:00:00 4,4 -3,9 4 2 13 7 NNW 1024,5 20 0 0,0
18.03.2019 03:00:00 5,1 -3,9 8 4 18 10 N 1024,7 20 0 0,0
18.03.2019 02:00:00 5,9 -4,5 10 5 22 12 NE 1024,5 20 0 0,0
18.03.2019 01:00:00 6,0 -3,3 11 6 19 10 NNE 1024,8 20 0 -
18.03.2019 00:00:00 6,3 -1,2 11 6 26 14 NE 1024,7 20 0 0,0
17.03.2019 23:00:00 6,7 -0,7 11 6 21 11 NE 1024,2 20 0 0,0
17.03.2019 22:00:00 6,9 0,4 9 5 24 13 ENE 1023,5 20 0 0,0
17.03.2019 21:00:00 7,8 1,1 16 8 32 18 ENE 1022,5 20 0 0,0
17.03.2019 20:00:00 9,3 1,3 21 11 36 19 NE 1020,8 20 0 0,0
17.03.2019 19:00:00 10,4 1,5 22 12 37 20 NE 1019,7 20 0 -
17.03.2019 18:00:00 11,4 1,9 27 15 51 27 NE 1018,1 20 33 0,0
17.03.2019 17:00:00 14,6 2,9 28 15 51 28 NE 1016,0 20 60 0,0
17.03.2019 16:00:00 16,5 2,5 31 17 44 24 NE 1014,9 20 60 0,0
17.03.2019 15:00:00 16,4 2,5 29 15 39 21 NE 1015,2 20 60 0,0
17.03.2019 14:00:00 18,3 0,9 20 11 38 21 NE 1015,1 20 60 0,0
17.03.2019 13:00:00 19,4 -3,6 13 7 27 15 NNW 1015,2 20 60 -
17.03.2019 12:00:00 17,4 -2,7 16 9 34 19 W 1016,1 20 60 0,0
17.03.2019 11:00:00 16,2 -1,0 11 6 26 14 W 1016,4 20 60 0,0
17.03.2019 10:00:00 12,7 -1,0 10 5 19 10 WSW 1017,4 20 59 0,0
17.03.2019 09:00:00 6,5 -1,7 3 2 9 5 NE 1018,8 20 21 0,0
17.03.2019 08:00:00 3,5 -3,0 2 1 6 3 S 1019,1 20 0 0,0
17.03.2019 07:00:00 4,4 -2,7 5 3 8 4 S 1018,5 20 0 -
17.03.2019 06:00:00 4,9 -2,7 2 1 7 4 ENE 1018,1 20 0 0,0
17.03.2019 05:00:00 5,7 -3,0 1 1 4 2 N 1017,5 20 0 0,0
17.03.2019 04:00:00 6,8 -2,7 1 1 4 2 E 1017,4 20 0 0,0
17.03.2019 03:00:00 7,9 -3,0 2 1 5 3 SSW 1017,3 20 0 0,0
17.03.2019 02:00:00 8,7 -2,5 3 2 8 5 E 1017,2 20 0 0,0
17.03.2019 01:00:00 10,2 -3,3 4 2 9 5 SSW 1016,8 20 0 -
17.03.2019 00:00:00 11,4 -3,3 6 4 8 5 ENE 1016,8 20 0 0,0
16.03.2019 23:00:00 14,0 -3,3 6 3 13 7 NE 1016,2 20 0 0,0
16.03.2019 22:00:00 17,3 -4,2 9 5 15 8 SSW 1015,5 20 0 0,0
16.03.2019 21:00:00 19,5 -4,8 4 2 12 6 S 1014,6 20 0 0,0
16.03.2019 20:00:00 21,6 -6,0 6 3 27 14 WSW 1013,7 20 15 0,0
16.03.2019 19:00:00 24,3 -6,0 18 10 30 16 WSW 1013,0 20 60 -
16.03.2019 18:00:00 26,5 -5,4 15 8 34 19 WSW 1012,5 20 60 0,0
16.03.2019 17:00:00 27,2 -5,7 15 8 38 20 WSW 1012,9 20 60 0,0
16.03.2019 16:00:00 27,3 -5,7 17 9 36 19 WSW 1013,5 20 60 0,0
16.03.2019 15:00:00 26,4 -4,2 10 5 23 12 WSW 1014,7 20 60 0,0
16.03.2019 14:00:00 23,1 -1,7 4 2 9 5 N 1017,2 11 60 0,0
16.03.2019 13:00:00 18,8 -1,7 4 2 9 5 N 1019,8 20 60 -
16.03.2019 12:00:00 15,2 -1,4 3 2 8 4 SSW 1021,9 20 60 0,0
16.03.2019 11:00:00 10,8 0,0 4 2 7 4 W 1024,2 20 60 0,0
16.03.2019 10:00:00 6,5 -0,3 2 1 - - WNW 1026,0 20 - -
16.03.2019 09:00:00 - - - - - - - - - - -
16.03.2019 08:00:00 - - - - - - - - - - -
16.03.2019 07:00:00 1,3 -1,2 1 1 6 3 NNE 1027,5 20 0 -
16.03.2019 06:00:00 1,9 -1,4 3 2 6 3 SSW 1027,3 20 0 0,0
16.03.2019 05:00:00 2,8 -0,5 2 1 4 2 NNE 1026,9 20 0 0,0
16.03.2019 04:00:00 3,4 -0,7 3 2 4 2 ENE 1027,0 20 0 0,0
16.03.2019 03:00:00 4,5 0,2 1 1 4 2 W 1027,3 20 0 0,0
16.03.2019 02:00:00 5,8 0,9 1 1 4 2 W 1027,1 20 0 0,0
16.03.2019 01:00:00 7,1 0,9 3 2 6 3 SE 1027,0 20 0 -
16.03.2019 00:00:00 8,4 1,5 5 3 8 4 NW 1027,2 20 0 0,0
15.03.2019 23:00:00 9,9 1,7 4 2 10 6 S 1026,5 20 0 0,0
15.03.2019 22:00:00 12,0 1,9 6 3 9 5 S 1025,6 20 0 0,0
15.03.2019 21:00:00 13,8 1,5 5 3 11 6 SSE 1024,6 20 0 0,0
15.03.2019 20:00:00 15,9 1,9 6 3 26 14 ENE 1023,5 20 14 0,0
15.03.2019 19:00:00 17,8 1,7 18 10 32 17 NE 1022,2 20 60 -
15.03.2019 18:00:00 19,5 1,9 20 11 34 18 NE 1021,3 20 60 0,0
15.03.2019 17:00:00 20,6 1,5 24 13 33 18 NE 1020,8 20 60 0,0
15.03.2019 16:00:00 22,8 0,6 13 7 24 13 NE 1020,8 20 60 0,0
15.03.2019 15:00:00 21,4 -1,2 7 4 15 8 ENE 1021,7 20 60 0,0
15.03.2019 14:00:00 19,8 -1,4 5 3 14 7 NNW 1023,3 7 60 0,0
15.03.2019 13:00:00 17,1 -2,0 5 3 12 6 S 1025,1 20 60 -
15.03.2019 12:00:00 13,5 -1,7 4 2 9 5 WNW 1026,8 20 60 0,0
15.03.2019 11:00:00 9,3 -0,3 2 1 6 4 NW 1028,9 20 60 0,0
15.03.2019 10:00:00 4,7 -0,3 3 1 7 4 W 1030,9 20 59 0,0
15.03.2019 09:00:00 1,1 -1,4 4 2 6 3 SSW 1032,1 20 21 0,0
15.03.2019 08:00:00 -0,5 -2,7 3 1 6 3 E 1032,3 20 0 0,0
15.03.2019 07:00:00 -0,4 -2,7 4 2 6 3 SW 1032,0 20 0 -
15.03.2019 06:00:00 0,3 -2,5 1 1 7 4 SE 1031,7 20 0 0,0
15.03.2019 05:00:00 0,9 -2,0 5 3 11 6 ENE 1031,3 20 0 0,0
15.03.2019 04:00:00 1,9 -1,7 8 5 11 6 S 1031,2 20 0 0,0
15.03.2019 03:00:00 2,4 -1,4 0 0 6 4 N 1031,5 20 0 0,0
15.03.2019 02:00:00 3,0 -1,2 3 2 13 7 SSW 1031,4 20 0 0,0
15.03.2019 01:00:00 3,7 -1,2 6 3 7 4 SSW 1031,4 20 0 -
15.03.2019 00:00:00 5,8 0,2 4 2 6 4 NNE 1030,8 20 0 0,0
14.03.2019 23:00:00 7,3 0,4 4 2 17 9 E 1030,2 20 0 0,0
14.03.2019 22:00:00 8,3 0,9 5 3 26 14 E 1029,1 20 0 0,0
14.03.2019 21:00:00 9,9 0,4 14 8 23 12 NE 1027,8 20 0 0,0
14.03.2019 20:00:00 11,4 -1,4 4 2 15 8 E 1026,8 20 9 0,0
14.03.2019 19:00:00 13,8 -1,4 10 5 27 14 ENE 1025,5 20 60 -
14.03.2019 18:00:00 15,2 -1,4 18 10 29 16 NE 1024,6 20 60 0,0
14.03.2019 17:00:00 16,4 -1,7 18 10 28 15 ENE 1024,1 20 60 0,0
14.03.2019 16:00:00 18,0 -3,0 10 5 20 11 NNW 1024,4 20 60 0,0
14.03.2019 15:00:00 17,0 -3,3 10 6 22 12 WNW 1025,2 20 60 0,0
14.03.2019 14:00:00 15,2 -2,7 12 7 22 12 WSW 1026,9 20 60 0,0
14.03.2019 13:00:00 13,3 -2,0 7 4 14 8 SSW 1028,7 20 60 -
14.03.2019 12:00:00 11,4 -1,7 5 3 13 7 WSW 1030,1 20 60 0,0
14.03.2019 11:00:00 9,2 -2,0 5 3 10 5 SW 1031,1 20 60 0,0
14.03.2019 10:00:00 5,5 -2,5 2 1 5 3 WNW 1032,5 20 59 0,0
14.03.2019 09:00:00 1,7 -2,5 2 1 8 4 NNW 1033,5 20 20 0,0
14.03.2019 08:00:00 -0,2 -3,6 4 2 7 4 E 1033,7 20 0 0,0
14.03.2019 07:00:00 0,3 -3,6 5 3 8 5 ENE 1033,3 20 0 -
14.03.2019 06:00:00 0,9 -3,3 2 1 7 4 E 1032,8 20 0 0,0
14.03.2019 05:00:00 1,4 -3,0 5 3 9 5 E 1032,5 20 0 0,0
14.03.2019 04:00:00 2,5 -2,7 7 4 10 5 NE 1032,6 20 0 0,0
14.03.2019 03:00:00 4,6 -2,7 6 4 16 9 SW 1032,1 20 0 0,0
14.03.2019 02:00:00 4,4 -3,0 5 3 12 6 SSW 1032,3 20 0 0,0
14.03.2019 01:00:00 5,3 -2,7 6 3 13 7 WSW 1031,9 20 0 -
14.03.2019 00:00:00 6,0 -2,7 12 6 25 13 W 1031,7 20 0 0,0
13.03.2019 23:00:00 6,2 -2,0 10 5 23 13 W 1031,4 20 0 0,0
13.03.2019 22:00:00 7,2 -1,4 12 7 18 10 WNW 1031,2 20 0 0,0
13.03.2019 21:00:00 8,4 -1,7 12 6 23 12 NNW 1029,9 20 0 0,0
13.03.2019 20:00:00 9,1 -2,0 16 9 41 22 NNW 1029,5 20 11 0,0
13.03.2019 19:00:00 10,8 -3,3 27 14 47 26 NW 1028,2 20 59 -
13.03.2019 18:00:00 11,9 -3,6 24 13 45 24 NW 1027,1 20 23 0,0
13.03.2019 17:00:00 14,1 -4,8 24 13 - - NNW 1025,6 20 49 0,0
13.03.2019 16:00:00 14,1 -4,2 19 10 45 24 N 1025,2 20 60 0,0
13.03.2019 15:00:00 - - - - - - - - - - -
13.03.2019 14:00:00 12,5 -5,1 23 13 44 24 NNW 1025,7 20 34 0,0
13.03.2019 13:00:00 12,6 -4,2 28 15 - - NW 1026,4 20 59 -
13.03.2019 12:00:00 11,3 -4,5 27 15 49 26 NW 1026,7 20 59 0,0
13.03.2019 11:00:00 11,3 -3,3 6 3 15 8 NW 1026,6 20 60 0,0
13.03.2019 10:00:00 9,4 -2,0 5 3 13 7 SE 1026,5 20 49 0,0

tt = temperature
td = dewpoint
ff = wind speed
fx = gusts
dd = wind direction
ppp = reduced air pressure
vv = visibility
sd = sunshine duration
rr = precipitation

Next stations